TimeCDT,TemperatureF,Dew PointF,Humidity,Sea Level PressureIn,VisibilityMPH,Wind Direction,Wind SpeedMPH,Gust SpeedMPH,PrecipitationIn,Events,Conditions,WindDirDegrees,DateUTC
12:55 AM,75.9,72.0,87,29.83,10.0,NNE,3.5,-,N/A,,Clear,30,2013-08-07 05:55:00
1:55 AM,75.9,71.1,85,29.82,10.0,Calm,Calm,-,N/A,,Partly Cloudy,0,2013-08-07 06:55:00
2:55 AM,73.9,71.1,91,29.82,10.0,Calm,Calm,-,N/A,,Clear,0,2013-08-07 07:55:00
3:55 AM,73.9,71.1,91,29.81,10.0,North,6.9,-,N/A,,Clear,10,2013-08-07 08:55:00
4:55 AM,73.9,70.0,87,29.83,10.0,NE,5.8,-,N/A,,Clear,40,2013-08-07 09:55:00
5:55 AM,72.0,70.0,93,29.86,10.0,North,5.8,-,N/A,,Mostly Cloudy,360,2013-08-07 10:55:00
6:20 AM,73.4,69.8,88,29.91,10.0,North,5.8,-,N/A,,Mostly Cloudy,360,2013-08-07 11:20:00
6:33 AM,73.4,71.6,94,29.91,10.0,North,6.9,-,N/A,,Scattered Clouds,360,2013-08-07 11:33:00
6:55 AM,73.0,70.0,90,29.87,10.0,North,9.2,-,N/A,,Clear,360,2013-08-07 11:55:00
7:55 AM,72.0,68.0,87,29.91,10.0,North,4.6,-,N/A,,Clear,10,2013-08-07 12:55:00
8:55 AM,72.0,66.9,84,29.94,10.0,WNW,8.1,-,N/A,,Scattered Clouds,290,2013-08-07 13:55:00
9:55 AM,73.9,64.9,73,29.93,10.0,North,12.7,-,N/A,,Partly Cloudy,360,2013-08-07 14:55:00
10:55 AM,73.0,64.9,76,29.90,10.0,ENE,11.5,-,N/A,,Partly Cloudy,60,2013-08-07 15:55:00
11:55 AM,73.9,64.0,71,29.94,10.0,East,3.5,-,N/A,,Scattered Clouds,100,2013-08-07 16:55:00
12:55 PM,75.0,64.9,71,29.94,10.0,East,10.4,-,N/A,,Mostly Cloudy,100,2013-08-07 17:55:00
1:55 PM,75.9,66.0,71,29.96,10.0,Calm,Calm,-,N/A,,Clear,0,2013-08-07 18:55:00
2:55 PM,78.1,66.9,68,29.96,10.0,Calm,Calm,-,N/A,,Clear,0,2013-08-07 19:55:00
3:55 PM,81.0,66.9,62,29.95,10.0,Variable,4.6,-,N/A,,Clear,0,2013-08-07 20:55:00
4:55 PM,82.0,66.9,60,29.94,10.0,Calm,Calm,-,N/A,,Clear,0,2013-08-07 21:55:00
5:55 PM,82.0,69.1,65,29.93,10.0,East,3.5,-,N/A,,Clear,80,2013-08-07 22:55:00
6:55 PM,80.1,66.0,62,29.91,10.0,East,3.5,-,N/A,,Clear,90,2013-08-07 23:55:00
7:55 PM,79.0,68.0,69,29.92,10.0,NE,3.5,-,N/A,,Clear,40,2013-08-08 00:55:00
8:55 PM,73.0,64.9,76,29.94,10.0,NE,4.6,-,N/A,,Clear,50,2013-08-08 01:55:00
9:55 PM,72.0,64.0,76,29.95,10.0,ENE,4.6,-,N/A,,Clear,60,2013-08-08 02:55:00
10:55 PM,69.1,63.0,81,29.95,10.0,East,4.6,-,N/A,,Clear,80,2013-08-08 03:55:00
11:55 PM,66.9,62.1,84,29.96,10.0,East,3.5,-,N/A,,Clear,90,2013-08-08 04:55:00